Montrose, CO

6:54 PM MST on December 14, 2017 (GMT -0700)
Montrose Regional

Weather History for KMTJ - April, 2012

Change the Weather History Date:

Friday, April 27, 2012

  Actual Average Record
Temperature  
Mean Temperature 53 °F 52 °F  
Max Temperature 66 °F 66 °F 80 °F (2006)
Min Temperature 40 °F 38 °F 23 °F (2008)
Degree Days  
Heating Degree Days 12 13  
Month to date heating degree days 321 445  
Since 1 July heating degree days 5512 5901  
Cooling Degree Days 0 0  
Month to date cooling degree days 7 0  
Year to date cooling degree days 7 0  
Growing Degree Days 6 (Base 50)    
Moisture  
Dew Point 29 °F    
Average Humidity 46    
Maximum Humidity 77    
Minimum Humidity 14    
Precipitation  
Precipitation 0.01 in 0.03 in 0.01 in (2012)
Month to date precipitation 0.39 0.88  
Year to date precipitation 1.56 3.13  
Sea Level Pressure  
Sea Level Pressure 29.80 in    
Wind  
Wind Speed 8 mph (West)    
Max Wind Speed 22 mph    
Max Gust Speed 30 mph    
Visibility 10 miles    
Events Rain    
T = Trace of Precipitation, MM = Missing Value Source: NWS Daily Summary

Daily Weather History Graph

Daily Weather History Graph

Search for Another Location

Airport or City:

Trip Planner

Search our weather history database for the weather conditions in past years. The results will help you decide how hot, cold, wet, or windy it might be!

Date:

Astronomy

Apr. 27, 2012 Rise Set
Actual Time 6:18 AM MDT 8:00 PM MDT
Civil Twilight 5:50 AM MDT 8:28 PM MDT
Nautical Twilight 5:16 AM MDT 9:02 PM MDT
Astronomical Twilight 4:39 AM MDT 9:39 PM MDT
Moon 11:00 AM MDT (4/27) 12:48 AM MDT (4/27)
Length of Visible Light 14h 38m
Length of Day
13h 41m
Waxing Crescent, 34% of the Moon is Illuminated
Apr 27
Waxing Crescent
Apr 29
First Quarter
May 5
Full
May 12
Last Quarter
May 20
New

Hourly Weather History & Observations

Time (MDT) Temp. Windchill Dew Point Humidity Pressure Visibility Wind Dir Wind Speed Gust Speed Precip Events Conditions
12:53 AM 48.9 °F - 37.0 °F 64% 29.72 in 10.0 mi SSE 5.8 mph - N/A   Overcast
1:53 AM 51.1 °F - 35.1 °F 54% 29.72 in 10.0 mi SE 3.5 mph - N/A   Overcast
2:53 AM 50.0 °F - 37.0 °F 61% 29.71 in 10.0 mi Variable 5.8 mph - N/A   Overcast
3:53 AM 48.9 °F - 37.0 °F 64% 29.71 in 10.0 mi Variable 3.5 mph - N/A   Overcast
4:53 AM 48.9 °F - 37.9 °F 66% 29.74 in 10.0 mi Calm Calm - N/A   Overcast
5:53 AM 46.9 °F - 39.0 °F 74% 29.79 in 10.0 mi Calm Calm - N/A   Overcast
6:53 AM 48.9 °F - 39.0 °F 69% 29.81 in 10.0 mi Calm Calm - 0.00 in Rain Light Rain
7:53 AM 48.0 °F - 41.0 °F 77% 29.84 in 10.0 mi ENE 3.5 mph - 0.01 in Rain Light Rain
8:53 AM 51.1 °F - 39.9 °F 66% 29.86 in 10.0 mi NNW 3.5 mph - 0.00 in   Overcast
9:53 AM 51.1 °F - 42.1 °F 71% 29.87 in 10.0 mi North 6.9 mph - N/A   Overcast
10:53 AM 55.0 °F - 42.1 °F 62% 29.86 in 10.0 mi NNW 5.8 mph - N/A   Mostly Cloudy
11:53 AM 55.9 °F - 37.0 °F 49% 29.85 in 10.0 mi North 3.5 mph - N/A   Mostly Cloudy
12:53 PM 61.0 °F - 34.0 °F 36% 29.81 in 10.0 mi WSW 17.3 mph 23.0 mph N/A   Mostly Cloudy
1:53 PM 62.1 °F - 28.0 °F 28% 29.79 in 10.0 mi SW 21.9 mph 28.8 mph N/A   Scattered Clouds
2:53 PM 62.1 °F - 23.0 °F 22% 29.78 in 10.0 mi SW 13.8 mph 19.6 mph N/A   Overcast
3:53 PM 66.0 °F - 21.0 °F 18% 29.76 in 10.0 mi WNW 13.8 mph 24.2 mph N/A   Partly Cloudy
4:53 PM 64.9 °F - 19.0 °F 17% 29.77 in 10.0 mi West 12.7 mph 24.2 mph N/A   Scattered Clouds
5:53 PM 64.0 °F - 17.1 °F 16% 29.76 in 10.0 mi WSW 15.0 mph - N/A   Clear
6:53 PM 62.1 °F - 14.0 °F 15% 29.78 in 10.0 mi West 15.0 mph 23.0 mph N/A   Clear
7:53 PM 57.9 °F - 12.9 °F 17% 29.81 in 10.0 mi WSW 13.8 mph - N/A   Clear
8:53 PM 54.0 °F - 14.0 °F 21% 29.84 in 10.0 mi WSW 9.2 mph - N/A   Clear
9:53 PM 51.1 °F - 16.0 °F 25% 29.88 in 10.0 mi WSW 6.9 mph - N/A   Clear
10:53 PM 46.9 °F - 19.9 °F 34% 29.91 in 10.0 mi Calm Calm - N/A   Clear
11:53 PM 45.0 °F 40.6 °F 16.0 °F 31% 29.94 in 10.0 mi NNW 8.1 mph - N/A   Clear